Sierra Vista, AZ

2:04 AM MST on December 15, 2017 (GMT -0700)
Sierra Vista Municipal-Libby Army Air Field

Weather History for KFHU - November, 2010

Change the Weather History Date:

Tuesday, November 23, 2010

  Actual Average Record
Temperature  
Mean Temperature 49 °F -  
Max Temperature 64 °F 64 °F 79 °F (2017)
Min Temperature 34 °F 42 °F 27 °F (1983)
Degree Days  
Heating Degree Days 16    
Moisture  
Dew Point 17 °F    
Average Humidity 37    
Maximum Humidity 76    
Minimum Humidity 9    
Precipitation  
Precipitation 0.00 in - - ()
Sea Level Pressure  
Sea Level Pressure 29.96 in    
Wind  
Wind Speed 3 mph (SW)    
Max Wind Speed 10 mph    
Max Gust Speed -    
Visibility 10 miles    
Events      
Averages and records for this station are not official NWS values.
T = Trace of Precipitation, MM = Missing Value Source: NWS Daily Summary

Daily Weather History Graph

Daily Weather History Graph

Search for Another Location

Airport or City:

Trip Planner

Search our weather history database for the weather conditions in past years. The results will help you decide how hot, cold, wet, or windy it might be!

Date:

Astronomy

Nov. 23, 2010 Rise Set
Actual Time 6:56 AM MST 5:19 PM MST
Civil Twilight 6:30 AM MST 5:45 PM MST
Nautical Twilight 6:00 AM MST 6:14 PM MST
Astronomical Twilight 5:31 AM MST 6:44 PM MST
Moon 7:09 PM MST (11/23) 8:51 AM MST (11/23)
Length of Visible Light 11h 15m
Length of Day
10h 22m
Waning Gibbous, 95% of the Moon is Illuminated
Nov 23
Waning Gibbous
Nov 28
Last Quarter
Dec 5
New
Dec 13
First Quarter
Dec 21
Full

Hourly Weather History & Observations

Time (MST) Temp. Windchill Dew Point Humidity Pressure Visibility Wind Dir Wind Speed Gust Speed Precip Events Conditions
12:56 AM 37.0 °F - 27.0 °F 67% 30.04 in 10.0 mi Calm Calm - N/A   Clear
1:56 AM 37.9 °F - 27.0 °F 65% 30.02 in 10.0 mi Calm Calm - N/A   Clear
2:56 AM 36.0 °F - 28.0 °F 73% 30.02 in 10.0 mi Calm Calm - N/A   Clear
3:56 AM 34.0 °F - 27.0 °F 75% 30.02 in 10.0 mi Calm Calm - N/A   Clear
4:56 AM 36.0 °F 31.1 °F 28.9 °F 76% 30.01 in 10.0 mi WSW 5.8 mph - N/A   Clear
5:55 AM 35.6 °F 31.7 °F 28.4 °F 75% 30.04 in 10.0 mi WSW 4.6 mph - N/A   Clear
6:55 AM 35.6 °F 32.8 °F 24.8 °F 65% 30.05 in 50.0 mi SW 3.5 mph - N/A   Partly Cloudy
7:55 AM 41.0 °F - 28.4 °F 61% 30.03 in 50.0 mi Variable 1.2 mph - N/A   Partly Cloudy
8:55 AM 44.6 °F - 30.2 °F 57% 30.04 in 50.0 mi Variable 1.2 mph - N/A   Partly Cloudy
9:55 AM 50.0 °F - 30.2 °F 47% 30.03 in 50.0 mi Variable 2.3 mph - N/A   Scattered Clouds
10:55 AM 55.4 °F - 24.8 °F 31% 30.01 in 50.0 mi Variable 2.3 mph - N/A   Mostly Cloudy
11:55 AM 64.4 °F - 14.0 °F 14% 29.95 in 50.0 mi Variable 1.2 mph - N/A   Mostly Cloudy
12:55 PM 62.6 °F - 3.2 °F 9% 29.93 in 50.0 mi Variable 6.9 mph - N/A   Mostly Cloudy
1:55 PM 64.4 °F - 5.0 °F 10% 29.91 in 50.0 mi WSW 8.1 mph - N/A   Mostly Cloudy
2:55 PM 62.6 °F - 5.0 °F 10% 29.91 in 50.0 mi Variable 5.8 mph - N/A   Mostly Cloudy
3:55 PM 62.6 °F - 1.4 °F 9% 29.90 in 50.0 mi SW 8.1 mph - N/A   Mostly Cloudy
4:55 PM 59.0 °F - 6.8 °F 13% 29.91 in 50.0 mi Variable 5.8 mph - N/A   Mostly Cloudy
5:55 PM 53.6 °F - 6.8 °F 15% 29.93 in 35.0 mi Variable 4.6 mph - N/A   Mostly Cloudy
6:55 PM 53.6 °F - 3.2 °F 13% 29.93 in 10.0 mi Variable 4.6 mph - N/A   Mostly Cloudy
7:55 PM 53.6 °F - 3.2 °F 13% 29.91 in 10.0 mi Variable 6.9 mph - N/A   Mostly Cloudy
8:55 PM 53.6 °F - 8.6 °F 16% 29.90 in 10.0 mi Calm Calm - N/A   Mostly Cloudy
9:55 PM 51.8 °F - 12.2 °F 21% 29.88 in 10.0 mi Variable 4.6 mph - N/A   Mostly Cloudy
10:55 PM 51.8 °F - 19.4 °F 28% 29.87 in 10.0 mi SW 5.8 mph - N/A   Mostly Cloudy
11:56 PM 52.0 °F - 21.0 °F 30% 29.84 in 10.0 mi SW 10.4 mph - N/A   Clear